Location: Schommer Observatory
(40.5200°N, 74.4500°W)
Time: 16:23:36
(UTC-04:00)

ISS - Pass Details

Date: 09 October 2017
Orbit: 401 x 408 km, 51.6° (Epoch: 19 October)

Event Time Altitude Azimuth Distance (km) Brightness Sun altitude
Rises 18:57:52 0° 310° (NW) 2,325 0.8 -6.8°
Reaches altitude 10° 19:00:43 10° 337° (NNW) 1,466 -0.7 -7.3°
Maximum altitude 19:02:33 14° 12° (NNE) 1,247 -1.5 -7.6°
Drops below altitude 10° 19:04:23 10° 46° (NE) 1,467 -1.4 -8.0°
Enters shadow 19:05:08 - 55° (NE) 1,654 -1.2 -8.1°
